Find Starlink 5821

NORAD ID: 57069 Int'l Des: 2023-088 Owner: SPXS Country: US Constellation: starlink operational
LEOCIRCULAR

現在のビュー

3D地球を読み込み中...

About Starlink 5821

Starlink 5821 (NORAD 57069) is a starlink constellation satellite (v1.5) launched Jun 22, 2023 by SPXS of US. It operates in LEO, CIRCULAR orbit with a mass of 305.00 kg.

Starlink 5821について

説明を読み込み中...

次回通過

Passes for default location (London). Set your location on the main map for personalized predictions.

高度履歴

Loading altitude history...

軌道要素

1 57069U 23088X 26173.49162169 -.00000846 00000-0 -21228-4 0 9994
2 57069 43.0006 224.6707 0001449 302.1285 57.9426 15.27576650166357
Epoch: Jun 22, 2026 • Age: 28 hours

現在のステータス

高度 494.7 km
速度 7.62 km/s
衛星直下点 -41.20°S, 1.43°E
打ち上げ日 Jun 22, 2023
運用期間 3 years
タイプ internet

技術仕様

分類 Payload
質量 305.00 kg
乾燥質量 290.00 kg
総質量 305.00 kg
長さ 0.20 m
直径 2.80 m
スパン 9.00 m
形状 Box + pan
製造者 SPXS
バスタイプ Starlink
フェーズステータス In Orbit
所有者/国 SPXS/US

Most Searched